Flag for Germany Weather past 2 weeks in Remscheid, North Rhine-Westphalia, Germany

Now
52 °F

Light rain. Broken clouds.


Feels Like: 46 °F
Forecast: 39 / 44 °F
Wind: 22 mph from Southwest

Location: Duesseldorf

Current Time: Mar 29, 2015 at 3:28:16 PM

Latest Report: Mar 29, 2015 at 2:20 PM


Visibility: N/A

Pressure: 29.47 "Hg

Humidity: 88%

Dew point: 48 °F

Location of RemscheidLocation

Historic Weather in Remscheid — Graph

°F

Remscheid temperature yesterday

Maximum temperature yesterday: 54 °F (at 11:20 AM)
Minimum temperature yesterday: 32 °F (at 5:20 AM)
Average temperature yesterday: 46 °F

Past Weeks' High & Low Weather Summary

 TemperatureHumidityPressure
High64 °F (Mar 17, 1:50 PM)100% (Mar 20, 2:50 AM)30.39 "Hg (Mar 20, 2:50 AM)
Low30 °F (Mar 20, 2:50 AM)32% (Mar 17, 4:20 PM)29.47 "Hg (Mar 29, 2:20 PM)
Average44 °F78%30.08 "Hg
* Reported Mar 14 1:20 PM — Mar 29 2:20 PM, Remscheid, Weather by CustomWeather, © 2015

Note: Actual official high and low records may vary slightly from our data, if they occured in-between our weather recording intervals... More about our weather records

Advertising

Remscheid weather history for previous 24 hours

 ConditionsComfort  
Time TempWeatherWind HumidityBarometerVisibility
2:20 PM
Sun, Mar 29
52 °FLight rain. Broken clouds.22 mph88%29.47 "HgN/A
1:50 PM50 °FRain. Partly sunny.17 mph94%29.50 "HgN/A
1:20 PM50 °FLight rain. Partly sunny.17 mph94%29.53 "Hg6 mi
12:50 PM50 °FLight rain. Broken clouds.15 mph94%29.56 "HgN/A
12:20 PM50 °FLight rain. Broken clouds.18 mph88%29.59 "HgN/A
11:50 AM48 °FLight rain. Broken clouds.17 mph94%29.59 "HgN/A
11:20 AM50 °FLight rain. Partly sunny.17 mph88%29.62 "HgN/A
10:50 AM48 °FRain. Partly sunny.17 mph94%29.62 "Hg5 mi
10:20 AM48 °FRain. Broken clouds.17 mph94%29.65 "HgN/A
9:50 AM48 °FRain. Broken clouds.18 mph87%29.65 "HgN/A
9:20 AM50 °FPartly sunny.17 mph82%29.65 "HgN/A
8:50 AM50 °FLight rain. Partly sunny.18 mph82%29.68 "HgN/A
8:20 AM50 °FLight rain. Overcast.20 mph76%29.68 "HgN/A
7:50 AM52 °FPassing clouds.21 mph72%29.68 "HgN/A
7:20 AM52 °FPartly cloudy.18 mph77%29.68 "HgN/A
6:50 AM52 °FPartly cloudy.16 mph77%29.71 "HgN/A
6:20 AM52 °FPartly cloudy.17 mph77%29.71 "HgN/A
5:50 AM52 °FPassing clouds.16 mph77%29.71 "HgN/A
5:20 AM52 °FPartly cloudy.21 mph77%29.71 "HgN/A
4:50 AM52 °FPartly cloudy.20 mph77%29.71 "HgN/A
4:20 AM52 °FPartly cloudy.20 mph77%29.71 "HgN/A
3:50 AM52 °FPartly cloudy.17 mph82%29.74 "HgN/A
3:20 AM54 °FPassing clouds.18 mph77%29.74 "HgN/A
1:50 AM54 °FPartly cloudy.22 mph77%29.74 "HgN/A
1:20 AM54 °FPassing clouds.21 mph82%29.74 "HgN/A
12:50 AM54 °FPartly cloudy.16 mph88%29.74 "HgN/A
12:20 AM54 °FPassing clouds.16 mph88%29.74 "HgN/A
11:50 PM
Sat, Mar 28
52 °FDrizzle. Overcast.17 mph94%29.77 "HgN/A
11:20 PM52 °FDrizzle. Overcast.12 mph94%29.80 "Hg5 mi
10:50 PM52 °FDrizzle. Overcast.13 mph94%29.80 "HgN/A
10:20 PM52 °FPartly cloudy.15 mph94%29.80 "Hg6 mi
9:50 PM52 °FPartly cloudy.15 mph88%29.80 "HgN/A
9:20 PM52 °FLight rain. Passing clouds.15 mph88%29.83 "HgN/A
8:50 PM52 °FPassing clouds.14 mph88%29.83 "HgN/A
8:20 PM52 °FDrizzle. Overcast.13 mph88%29.86 "HgN/A
7:50 PM50 °FPartly cloudy.13 mph94%29.86 "HgN/A
7:20 PM50 °FPassing clouds.12 mph88%29.86 "HgN/A
6:50 PM50 °FPartly sunny.12 mph94%29.89 "HgN/A
6:20 PM50 °FPartly sunny.12 mph88%29.89 "HgN/A
5:50 PM48 °FPartly sunny.12 mph94%29.89 "HgN/A
5:20 PM48 °FLight rain. Broken clouds.14 mph94%29.89 "HgN/A
4:50 PM48 °FBroken clouds.15 mph94%29.92 "HgN/A
4:20 PM48 °FDrizzle. Fog.16 mph94%29.92 "Hg2 mi
3:50 PM48 °FDrizzle. Fog.14 mph94%29.95 "Hg2 mi
3:20 PM48 °FDrizzle. More clouds than sun.14 mph94%29.95 "Hg3 mi
Weather by CustomWeather, © 2015

See weather overviewHow to use our weather pages